Погода в Пчевжа

Россия / Санкт-Петербург и Ленинградская область     59°21′22″N   32°20′40″E
темп.,
°C
ветер,
м/с
пор.,
м/с
влажн.,
%
обл.,
%
осадки,
мм/ч
давл.,
гПа
погр.,
м
7 марта, вс
вс700:00−2юз71594100 1.9 9941118
03:00−1юз61296100 4.6 990982
06:00−2з61189100 1.6 9871015
09:00−7з6137783 1.7 9881369
12:00−4з6115181 0.1 9892156
15:00−5зсз697171 0.4 9891285
18:00−6зсз51178100 0.3 9901307
21:00−7сз61486100 0.4 9911172
8 марта, пн
пн800:00−7ссз61289100 0.4 993987
03:00−8с51190100 0.8 997829
06:00−10с51091100 0.4 1000762
09:00−11с51087100 0.6 1004650
12:00−11с4883100 0.1 1007626
15:00−10с4881100 0.1 1010612
18:00−12с3888100 0.0 1012497
21:00−15ссз289699 0.0 1015299
9 марта, вт
вт900:00−16с259896 0.0 1016158
03:00−18ссв239774 0.1 101798
06:00−20ссв139735 0.0 1019108
09:00−20ссв239255 0.0 1020232
12:00−15ссв237235 0.0 1021466
15:00−13св236417 0.0 1022581
18:00−15св22840 0.0 102273
21:00−18в24930 0.0 102394
10 марта, ср
ср1000:00−19в25940 0.0 1024107
03:00−20в24920 0.0 102595
06:00−20в22900 0.0 102576
09:00−18в24800 0.0 1026143
12:00−13всв246917 0.0 1027331
15:00−10в246955 0.0 1026510
18:00−11всв2486100 0.0 102691
21:00−14вюв2491100 0.0 1026100
11 марта, чт
чт1100:00−16вюв249087 0.0 1025111
03:00−17вюв378749 0.0 1024180
06:00−16вюв39790 0.0 1022250
09:00−14юв411710 0.0 1021386
12:00−10юв497944 0.0 1018546
15:00−7юв488271 0.0 1014632
18:00−6юв51188100 0.0 1011544
21:00−6ююв51492100 0.1 1007563